Weather History for Dallas Addison, TX

Change the Weather History Date:

Thursday, September 12, 2013

  Actual Average Record
Temperature  
Mean Temperature 85 °F -  
Max Temperature 97 °F 88 °F 102 °F (2011)
Min Temperature 77 °F 70 °F 59 °F (2014)
Cooling Degree Days 20    
Growing Degree Days 35 (Base 50)    
Moisture  
Dew Point 64 °F    
Average Humidity 52    
Maximum Humidity 69    
Minimum Humidity 32    
Precipitation  
Precipitation 0.00 in - - ()
Sea Level Pressure  
Sea Level Pressure 30.03 in    
Wind  
Wind Speed 5 mph (ESE)    
Max Wind Speed 8 mph    
Max Gust Speed -    
Visibility 11 miles    
Events      
Averages and records for this station are not official NWS values.
T = Trace of Precipitation, MM = Missing Value Source: NWS Daily Summary

Daily Weather History Graph

Daily Weather History Graph

Search for Another Location

Airport:

Trip Planner

Search our weather history database for the weather conditions in past years. The results will help you decide how hot, cold, wet, or windy it might be!

Date:

Astronomy

Sep. 12, 2013 Rise Set
Actual Time 7:09 AM CDT 7:37 PM CDT
Civil Twilight 6:44 AM CDT 8:02 PM CDT
Nautical Twilight 6:15 AM CDT 8:31 PM CDT
Astronomical Twilight 5:45 AM CDT 9:00 PM CDT
Moon 2:17 PM CDT (9/12) No Moon Set
Length of Visible Light 13h 17m
Length of Day
12h 28m
Waxing Crescent, 50% of the Moon is Illuminated
Sep 12
Waxing Crescent
Sep 12
First Quarter
Sep 19
Full
Sep 26
Last Quarter
Oct 4
New

Hourly Weather History & Observations

Time (CDT) Temp. Heat Index Dew Point Humidity Pressure Visibility Wind Dir Wind Speed Gust Speed Precip Events Conditions
12:15 AM 82.9 °F 84.2 °F 63.7 °F 52% 30.06 in 10.0 mi ESE 6.9 mph - N/A   Clear
12:35 AM 82.6 °F 83.9 °F 63.9 °F 53% 30.05 in 10.0 mi ESE 6.9 mph - N/A   Clear
12:55 AM 82.4 °F 83.9 °F 64.4 °F 54% 30.05 in 10.0 mi ESE 5.8 mph - N/A   Clear
1:15 AM 82.0 °F 83.6 °F 64.6 °F 55% 30.05 in 10.0 mi SE 4.6 mph - N/A   Clear
1:35 AM 81.9 °F 83.5 °F 64.8 °F 56% 30.05 in 10.0 mi ESE 3.5 mph - N/A   Clear
1:55 AM 81.5 °F 83.3 °F 64.8 °F 57% 30.05 in 10.0 mi SE 3.5 mph - N/A   Clear
2:15 AM 81.5 °F 83.1 °F 64.6 °F 56% 30.05 in 10.0 mi SE 3.5 mph - N/A   Clear
2:35 AM 81.5 °F 83.1 °F 64.4 °F 56% 30.05 in 10.0 mi SE 5.8 mph - N/A   Clear
2:55 AM 81.1 °F 82.8 °F 64.6 °F 57% 30.04 in 10.0 mi SE 5.8 mph - N/A   Clear
3:15 AM 81.0 °F 82.7 °F 64.8 °F 58% 30.04 in 10.0 mi SE 6.9 mph - N/A   Scattered Clouds
3:35 AM 80.6 °F 82.4 °F 65.1 °F 59% 30.04 in 10.0 mi ESE 4.6 mph - N/A   Scattered Clouds
3:55 AM 80.1 °F 82.0 °F 65.3 °F 61% 30.04 in 10.0 mi SE 6.9 mph - N/A   Clear
4:15 AM 79.5 °F - 65.5 °F 62% 30.04 in 10.0 mi SE 4.6 mph - N/A   Clear
4:35 AM 79.3 °F - 65.7 °F 63% 30.04 in 10.0 mi ESE 5.8 mph - N/A   Clear
4:55 AM 79.0 °F - 65.5 °F 63% 30.04 in 10.0 mi SE 3.5 mph - N/A   Clear
5:15 AM 78.8 °F - 65.7 °F 64% 30.05 in 10.0 mi SE 5.8 mph - N/A   Clear
5:35 AM 78.3 °F - 65.8 °F 65% 30.05 in 10.0 mi ESE 6.9 mph - N/A   Clear
5:51 AM 78.8 °F - 66.2 °F 65% 30.05 in 13.0 mi ESE 4.6 mph - N/A   Scattered Clouds
5:55 AM 77.9 °F - 65.8 °F 66% 30.05 in 10.0 mi SE 4.6 mph - N/A   Clear
6:47 AM 77.0 °F - 66.2 °F 69% 30.06 in 13.0 mi ESE 4.6 mph - N/A   Scattered Clouds
7:47 AM 77.0 °F - 66.2 °F 69% 30.07 in 13.0 mi SSE 3.5 mph - N/A   Partly Cloudy
8:53 AM 80.6 °F 82.3 °F 64.4 °F 58% 30.08 in 13.0 mi SSW 5.8 mph - N/A   Partly Cloudy
10:47 AM 87.8 °F 89.4 °F 64.4 °F 46% 30.09 in 13.0 mi West 5.8 mph - N/A   Clear
11:47 AM 89.6 °F 91.1 °F 64.4 °F 43% 30.09 in 13.0 mi WNW 6.9 mph - N/A   Partly Cloudy
12:47 PM 91.4 °F 90.7 °F 59.0 °F 34% 30.07 in 13.0 mi WNW 6.9 mph - N/A   Scattered Clouds
2:47 PM 93.2 °F 93.3 °F 60.8 °F 34% 30.01 in 13.0 mi West 5.8 mph - N/A   Mostly Cloudy
4:47 PM 93.2 °F 93.3 °F 60.8 °F 34% 29.96 in 13.0 mi ENE 5.8 mph - N/A   Scattered Clouds
5:47 PM 93.2 °F 93.3 °F 60.8 °F 34% 29.95 in 13.0 mi Calm Calm - N/A   Scattered Clouds
6:47 PM 93.2 °F 92.6 °F 59.0 °F 32% 29.94 in 13.0 mi Calm Calm - N/A   Scattered Clouds
8:55 PM 89.6 °F 89.5 °F 60.8 °F 38% 29.97 in 13.0 mi East 4.6 mph - N/A   Partly Cloudy
9:49 PM 87.8 °F 88.5 °F 62.6 °F 43% 29.99 in 13.0 mi NE 5.8 mph - N/A   Clear
10:15 PM 88.0 °F 87.9 °F 60.8 °F 40% 29.99 in 10.0 mi ENE 5.8 mph - N/A   Clear
10:35 PM 87.6 °F 87.7 °F 61.3 °F 41% 29.98 in 10.0 mi NE 4.6 mph - N/A   Clear
10:55 PM 87.1 °F 87.2 °F 61.7 °F 42% 29.98 in 10.0 mi ENE 8.1 mph - N/A   Mostly Cloudy
11:15 PM 86.4 °F 86.8 °F 62.1 °F 44% 29.98 in 10.0 mi ENE 3.5 mph - N/A   Scattered Clouds
11:35 PM 86.4 °F 86.8 °F 61.9 °F 44% 29.98 in 10.0 mi ENE 4.6 mph - N/A   Mostly Cloudy
11:55 PM 86.2 °F 86.6 °F 61.9 °F 44% 29.98 in 10.0 mi East 5.8 mph - N/A   Scattered Clouds